| time (UTC) | temp F | wind direction | speed MPH | gust MPH | rain 1hr in | rain 24hr in | rain mn in | humidity % | barometer mb |
| 20260510201526 | 63 | 305 | 0.0 | 3.0 | 0.00 | 0.00 | 0.00 | 69 | 1017.7 |
| 20260510200003 | 63 | 285 | 0.0 | 4.0 | 0.00 | 0.00 | 0.00 | 69 | 1018.0 |
| 20260510194557 | 62 | 140 | 0.0 | 1.0 | 0.00 | 0.00 | 0.00 | 72 | 1018.0 |
| 20260510193032 | 61 | 87 | 0.0 | 1.0 | 0.00 | 0.00 | 0.00 | 71 | 1017.8 |
| 20260510191517 | 62 | 335 | 0.0 | 1.0 | 0.00 | 0.00 | 0.00 | 71 | 1018.1 |
| 20260510190019 | 62 | 49 | 0.0 | 2.0 | 0.00 | 0.00 | 0.00 | 71 | 1017.7 |
| 20260510184601 | 61 | 64 | 0.0 | 3.0 | 0.00 | 0.00 | 0.00 | 73 | 1017.6 |
| 20260510183010 | 61 | 27 | 0.0 | 3.0 | 0.00 | 0.00 | 0.00 | 72 | 1017.6 |
| 20260510181554 | 61 | 270 | 0.0 | 2.0 | 0.00 | 0.00 | 0.00 | 73 | 1017.6 |
| 20260510180038 | 59 | 169 | 0.0 | 2.0 | 0.00 | 0.00 | 0.00 | 75 | 1017.6 |
| 20260510174519 | 59 | 351 | 0.0 | 2.0 | 0.00 | 0.00 | 0.00 | 76 | 1017.6 |
| 20260510173021 | 58 | 299 | 0.0 | 4.0 | 0.00 | 0.00 | 0.00 | 76 | 1017.4 |
| 20260510171505 | 58 | 287 | 0.0 | 4.0 | 0.00 | 0.00 | 0.00 | 76 | 1017.3 |
| 20260510170051 | 57 | 350 | 1.0 | 4.0 | 0.00 | 0.00 | 0.00 | 78 | 1017.1 |
| 20260510164539 | 56 | 307 | 0.0 | 2.0 | 0.00 | 0.00 | 0.00 | 79 | 1017.2 |
| 20260510163019 | 55 | 274 | 0.0 | 3.0 | 0.00 | 0.00 | 0.00 | 81 | 1017.1 |
| 20260510161601 | 55 | 281 | 0.0 | 3.0 | 0.00 | 0.00 | 0.00 | 81 | 1017.2 |
| 20260510160050 | 54 | 288 | 1.0 | 3.0 | 0.00 | 0.00 | 0.00 | 82 | 1017.0 |
| 20260510154524 | 54 | 288 | 1.0 | 4.0 | 0.00 | 0.00 | 0.00 | 82 | 1016.8 |
| 20260510153006 | 54 | 8 | 0.0 | 3.0 | 0.00 | 0.00 | 0.00 | 83 | 1016.7 |
| 20260510151553 | 54 | 290 | 0.0 | 4.0 | 0.00 | 0.00 | 0.00 | 83 | 1016.6 |
| 20260510150028 | 54 | 277 | 1.0 | 3.0 | 0.00 | 0.00 | 0.00 | 83 | 1016.5 |
| 20260510144522 | 54 | 287 | 0.0 | 3.0 | 0.00 | 0.00 | 0.00 | 83 | 1016.4 |
| 20260510143115 | 54 | 277 | 0.0 | 3.0 | 0.00 | 0.00 | 0.00 | 83 | 1016.2 |
| 20260510141546 | 54 | 279 | 0.0 | 2.0 | 0.00 | 0.00 | 0.00 | 83 | 1016.0 |
| 20260510140021 | 54 | 283 | 0.0 | 4.0 | 0.00 | 0.00 | 0.00 | 83 | 1016.0 |
| 20260510134635 | 54 | 277 | 0.0 | 3.0 | 0.00 | 0.00 | 0.00 | 83 | 1015.9 |
| 20260510133050 | 54 | 292 | 0.0 | 2.0 | 0.00 | 0.00 | 0.00 | 83 | 1015.6 |
| 20260510131522 | 54 | 274 | 1.0 | 3.0 | 0.00 | 0.00 | 0.00 | 83 | 1015.7 |
| 20260510130014 | 54 | 271 | 0.0 | 3.0 | 0.00 | 0.00 | 0.00 | 83 | 1015.8 |
| 20260510124553 | 54 | 282 | 0.0 | 1.0 | 0.00 | 0.00 | 0.00 | 83 | 1015.8 |
| 20260510123022 | 54 | 284 | 0.0 | 3.0 | 0.00 | 0.00 | 0.00 | 83 | 1015.7 |
| 20260510121508 | 54 | 276 | 0.0 | 3.0 | 0.00 | 0.00 | 0.00 | 83 | 1015.7 |
| 20260510120046 | 54 | 286 | 0.0 | 3.0 | 0.00 | 0.00 | 0.00 | 83 | 1015.6 |
| 20260510114532 | 54 | 272 | 0.0 | 0.0 | 0.00 | 0.00 | 0.00 | 83 | 1015.4 |
| 20260510113008 | 55 | 271 | 0.0 | 1.0 | 0.00 | 0.00 | 0.00 | 83 | 1015.5 |
| 20260510111600 | 55 | 276 | 0.0 | 5.0 | 0.00 | 0.00 | 0.00 | 82 | 1015.2 |
| 20260510110032 | 56 | 282 | 1.0 | 3.0 | 0.00 | 0.00 | 0.00 | 83 | 1015.2 |
| 20260510104505 | 56 | 290 | 1.0 | 5.0 | 0.00 | 0.00 | 0.00 | 82 | 1014.9 |
| 20260510103055 | 57 | 270 | 0.0 | 4.0 | 0.00 | 0.00 | 0.00 | 82 | 1014.6 |
| 20260510101534 | 57 | 283 | 0.0 | 3.0 | 0.00 | 0.00 | 0.00 | 82 | 1014.4 |
| 20260510100010 | 57 | 278 | 0.0 | 2.0 | 0.00 | 0.00 | 0.00 | 82 | 1014.0 |
| 20260510094601 | 56 | 290 | 0.0 | 5.0 | 0.00 | 0.00 | 0.00 | 84 | 1014.2 |
| 20260510093042 | 54 | 296 | 0.0 | 0.0 | 0.00 | 0.00 | 0.00 | 83 | 1014.2 |
| 20260510091531 | 54 | 296 | 0.0 | 0.0 | 0.00 | 0.00 | 0.00 | 83 | 1014.1 |
| 20260510090008 | 55 | 296 | 0.0 | 0.0 | 0.00 | 0.00 | 0.00 | 82 | 1014.0 |
| 20260510084549 | 55 | 296 | 0.0 | 0.0 | 0.00 | 0.00 | 0.00 | 82 | 1013.8 |
| 20260510083034 | 56 | 296 | 0.0 | 0.0 | 0.00 | 0.00 | 0.00 | 80 | 1013.7 |
| 20260510081510 | 56 | 296 | 0.0 | 0.0 | 0.00 | 0.00 | 0.00 | 79 | 1013.7 |
| 20260510080104 | 57 | 296 | 0.0 | 0.0 | 0.00 | 0.00 | 0.00 | 79 | 1013.7 |
| 20260510074536 | 58 | 296 | 0.0 | 0.0 | 0.00 | 0.00 | 0.00 | 77 | 1013.8 |
| 20260510073011 | 59 | 296 | 0.0 | 0.0 | 0.00 | 0.00 | 0.00 | 76 | 1013.7 |
| 20260510071602 | 59 | 296 | 0.0 | 0.0 | 0.00 | 0.00 | 0.00 | 75 | 1013.6 |
| 20260510070035 | 60 | 296 | 0.0 | 0.0 | 0.00 | 0.00 | 0.00 | 74 | 1013.6 |
| 20260510064524 | 61 | 296 | 0.0 | 0.0 | 0.00 | 0.00 | 0.00 | 73 | 1013.6 |
| 20260510063107 | 61 | 296 | 0.0 | 0.0 | 0.00 | 0.00 | 0.00 | 72 | 1013.6 |
| 20260510061545 | 61 | 296 | 0.0 | 0.0 | 0.00 | 0.00 | 0.00 | 71 | 1013.5 |
| 20260510060045 | 62 | 296 | 0.0 | 0.0 | 0.00 | 0.00 | 0.00 | 70 | 1013.5 |
| 20260510054513 | 62 | 296 | 0.0 | 0.0 | 0.00 | 0.00 | 0.00 | 69 | 1013.4 |
| 20260510053120 | 63 | 296 | 0.0 | 0.0 | 0.00 | 0.00 | 0.00 | 67 | 1013.3 |
| 20260510051620 | 63 | 296 | 0.0 | 0.0 | 0.00 | 0.00 | 0.00 | 66 | 1013.4 |
| 20260510050023 | 64 | 296 | 0.0 | 0.0 | 0.00 | 0.00 | 0.00 | 65 | 1013.3 |
| 20260510044511 | 65 | 296 | 0.0 | 0.0 | 0.00 | 0.00 | 0.00 | 64 | 1013.3 |
| 20260510043130 | 65 | 296 | 0.0 | 0.0 | 0.00 | 0.00 | 0.00 | 63 | 1013.1 |
| 20260510041535 | 66 | 296 | 0.0 | 0.0 | 0.00 | 0.00 | 0.00 | 61 | 1012.8 |
| 20260510040004 | 67 | 296 | 0.0 | 0.0 | 0.00 | 0.00 | 0.00 | 60 | 1012.6 |
| 20260510034555 | 68 | 296 | 0.0 | 0.0 | 0.00 | 0.00 | 0.00 | 58 | 1012.5 |
| 20260510033039 | 69 | 270 | 0.0 | 0.0 | 0.00 | 0.00 | 0.00 | 56 | 1012.4 |
| 20260510031513 | 70 | 270 | 0.0 | 0.0 | 0.00 | 0.00 | 0.00 | 53 | 1012.3 |
| 20260510030103 | 72 | 270 | 0.0 | 1.0 | 0.00 | 0.00 | 0.00 | 51 | 1012.3 |
| 20260510024544 | 73 | 284 | 0.0 | 2.0 | 0.00 | 0.00 | 0.00 | 47 | 1012.3 |
| 20260510023034 | 74 | 266 | 1.0 | 3.0 | 0.00 | 0.00 | 0.00 | 43 | 1012.2 |
| 20260510021542 | 75 | 275 | 0.0 | 3.0 | 0.00 | 0.00 | 0.00 | 39 | 1012.3 |
| 20260510020011 | 75 | 276 | 0.0 | 3.0 | 0.00 | 0.00 | 0.00 | 36 | 1012.3 |
| 20260510014604 | 76 | 274 | 0.0 | 4.0 | 0.00 | 0.00 | 0.00 | 34 | 1012.5 |
| 20260510013042 | 76 | 266 | 1.0 | 4.0 | 0.00 | 0.00 | 0.00 | 31 | 1012.6 |
| 20260510011522 | 76 | 305 | 0.0 | 3.0 | 0.00 | 0.00 | 0.00 | 34 | 1012.7 |
| 20260510010006 | 76 | 284 | 1.0 | 4.0 | 0.00 | 0.00 | 0.00 | 34 | 1012.7 |
| 20260510004542 | 76 | 290 | 1.0 | 7.0 | 0.00 | 0.00 | 0.00 | 36 | 1012.9 |
| 20260510003028 | 76 | 290 | 0.0 | 4.0 | 0.00 | 0.00 | 0.00 | 36 | 1012.8 |
| 20260510001506 | 77 | 300 | 1.0 | 8.0 | 0.00 | 0.00 | 0.00 | 37 | 1013.0 |
| 20260510000050 | 76 | 271 | 1.0 | 4.0 | 0.00 | 0.00 | 0.00 | 38 | 1013.1 |
| 20260509234539 | 76 | 360 | 1.0 | 6.0 | 0.00 | 0.00 | 0.00 | 39 | 1013.2 |
| 20260509233103 | 76 | 261 | 1.0 | 6.0 | 0.00 | 0.00 | 0.00 | 39 | 1013.4 |
| 20260509231544 | 75 | 300 | 2.0 | 5.0 | 0.00 | 0.00 | 0.00 | 42 | 1013.4 |
| 20260509230015 | 75 | 300 | 1.0 | 5.0 | 0.00 | 0.00 | 0.00 | 43 | 1013.9 |
| 20260509224554 | 75 | 290 | 3.0 | 5.0 | 0.00 | 0.00 | 0.00 | 43 | 1014.1 |
| 20260509223035 | 74 | 269 | 2.0 | 6.0 | 0.00 | 0.00 | 0.00 | 45 | 1014.4 |
| 20260509221525 | 74 | 288 | 2.0 | 6.0 | 0.00 | 0.00 | 0.00 | 49 | 1014.5 |
| 20260509220051 | 74 | 293 | 2.0 | 7.0 | 0.00 | 0.00 | 0.00 | 50 | 1014.7 |
| 20260509214526 | 73 | 266 | 3.0 | 6.0 | 0.00 | 0.00 | 0.00 | 52 | 1014.9 |
| 20260509213120 | 73 | 275 | 0.0 | 6.0 | 0.00 | 0.00 | 0.00 | 54 | 1015.0 |
| 20260509211611 | 72 | 273 | 1.0 | 8.0 | 0.00 | 0.00 | 0.00 | 55 | 1015.0 |
| 20260509210025 | 71 | 278 | 3.0 | 8.0 | 0.00 | 0.00 | 0.00 | 55 | 1015.2 |
| 20260509204549 | 71 | 276 | 3.0 | 6.0 | 0.00 | 0.00 | 0.00 | 53 | 1015.3 |
| 20260509203032 | 70 | 271 | 0.0 | 5.0 | 0.00 | 0.00 | 0.00 | 56 | 1015.5 |